{"data":{"norad_id":68581,"intl_designator":"2026-072J","name":"KUIPER-00234","alt_names":[],"object_type":"PAYLOAD","status":"ACTIVE","operator":null,"country":"US","launch_date":"2026-04-04","launch_site_code":"AFETR","launch_vehicle":null,"mission":null,"orbit_class":"UNKNOWN","rcs_meters":null,"size_class":null,"mass_kg":null,"dimensions":null,"purposes":[],"wikipedia_slug":null,"has_3d_model":false,"image_url":null,"decayed_at":null,"tle_current":{"epoch":"2026-05-25T04:00:03.998880Z","epoch_age_seconds":70799,"freshness":"FRESH","line1":"1 68581U 26072J   26145.16671295 -.00074161  00000+0 -75610-2 0  9991","line2":"2 68581  51.8942 291.6066 0006052 343.2702 267.2504 14.90558916  5068","mean_motion":14.90558916,"eccentricity":0.0006052,"inclination_deg":51.8942,"raan_deg":291.6066,"arg_perigee_deg":343.2702,"mean_anomaly_deg":267.2504,"bstar":-0.007561,"rev_number":506,"period_min":96.608056517774,"perigee_km":591.97081040281,"apogee_km":600.41253782996,"semimajor_km":6974.3286741164,"source":"CELESTRAK","updated_at":"2026-05-25T13:38:07.949066Z"}}}